NWS Melbourne » East Central Florida Hourly Weather Roundup

MIARWRMLB 000
TTAA00 KMLB 010111
HOURLY WEATHER ROUNDUP AROUND FLORIDA
NATIONAL WEATHER SERVICE OFFICE MELBOURNE FL
900 PM EDT THU JUL 31 2014
  
CITY           SKY/WX    TMP DP  RH WIND       PRES   REMARKS
MELBOURNE      FAIR      84  74  71 S8        29.97R                  
FORT PIERCE    FAIR      79  74  84 S5        29.98F                  
ORLANDO INTL   MOCLDY    86  68  54 W5        29.96S                  
DAYTONA BEACH  MOCLDY    83  77  82 E3        29.98R                  
VERO BEACH     CLOUDY    78  74  87 S6        29.97F                  
$$
...ELSEWHERE ACROSS CENTRAL FLORIDA...
  
CITY           SKY/WX    TMP DP  RH WIND       PRES   REMARKS
PATRICK AFB    FAIR      84  77  79 S14       29.97R                  
JFK SPACE CTR  MOCLDY    81  79  94 S8        29.97S                  
CAPE CANAVERAL PTCLDY    83  77  80 S12       29.96S                  
TITUSVILLE     PTCLDY    82  75  78 CALM      29.97R                  
ORLANDO EXEC   PTCLDY    85  76  74 E7        29.96S                  
LEESBURG       FAIR      84  75  74 W5        29.98R                  
SANFORD        MOCLDY    81  75  82 E6        29.97R                  
WINTER HAVEN   FAIR      84  68  58 NW6       29.98S                  
KISSIMMEE      CLEAR     86  72  62 W5        29.96F                  
OKEECHOBEE       N/A     79  73  83 MISG      29.97F                  
TAMPA          PTCLDY    83  66  56 NW6       29.98S                  
$$
...NORTHERN FLORIDA...
  
CITY           SKY/WX    TMP DP  RH WIND       PRES   REMARKS
DELAND         FAIR      81  77  89 E5        29.98S                  
PALM COAST     FAIR      82  77  85 SE3       29.98R                  
ST AUGUSTINE   MOCLDY    84  75  74 SE7       29.99R                  
OCALA          MOCLDY    82  64  54 CALM      29.99R                  
GAINESVILLE    FAIR      81  73  76 E6        29.97S                  
JACKSONVILLE   MOCLDY    83  72  69 E5        29.97S                  
TALLAHASSEE    PTCLDY    82  66  58 S5        29.97S                  
$$
...ALONG THE SOUTHEAST COAST TO THE KEYS...
  
CITY           SKY/WX    TMP DP  RH WIND       PRES   REMARKS
STUART         FAIR      77  73  88 S5        30.00S                  
WEST PALM BCH  CLOUDY    79  75  87 S3        29.99R                  
MIAMI          MOCLDY    78  75  90 CALM      30.00F                  
KEY WEST       CLEAR     85  74  69 E3        29.99S                  
$$
...MARINE REPORTS...
  
STATION/POSITION TIME  TEMP    WIND        PRES    WAVE   SWELL
                       AIR SEA DIR/SP/G            HT/PER HT/PER/DIR
                 (UTC) (F)     (DEG/KT/KT) (MB)    (FT/S) (FT/S/D)
ST AUGUSTINE FP  0100   83     140/ 13/ 13 1015.8S
20NM E CAPE CANA 0100   84 83  160/ 14/ 16 1015.2S   3/ 3   2/ 90/ 8
120 E NEW SMYRNA 0100   82 84  150/ 16/ 19 1016.5F   2/ 5   2/ 80/ 8
TRIDENT PIER     0100   83 86  140/  8/ 12 1014.4R
4NM E PORT CANAV 0100      84                N/A     3/ 4
6NM NE FPR INLET 0100      83                N/A     1/ 3
SETTLEMENT PT GB 0100   83     130/  7/  9 1016.9R
$$
  
 


USA.gov is the U.S. government's official web portal to all federal, state and local government web resources and services.